Home   Weather   Port-aux-Francais   Past weeks

Flag for French Southern Territories Past Weather in Port-aux-Francais, French Southern Territories — Yesterday and Last 2 Weeks

Now
55 °F

Cool.


Feels Like: 49 °F
Forecast: 41 / 48 °F
Wind: 26 mph from Northwest

Location: Port-Aux-Francais Iles Kerguelen

Current Time: Jan 21, 2017 at 6:42:37 pm

Latest Report: Jan 21, 2017 at 6:00 pm


Visibility: N/A

Pressure: 29.70 "Hg

Humidity: 72%

Dew Point: 46 °F

Location of Port-aux-FrancaisLocation

Past Weather in Port-aux-Francais — Graph

°F

Port-aux-Francais Temperature Yesterday

Maximum temperature yesterday: 61 °F (at 4:00 pm)
Minimum temperature yesterday: 43 °F (at 2:00 am)
Average temperature yesterday: 53 °F

High & Low Weather Summary for the Past Weeks

 TemperatureHumidityPressure
High61 °F (Jan 20, 4:00 pm)93% (Jan 11, 12:00 am)30.13 "Hg (Jan 11, 12:00 am)
Low34 °F (Jan 14, 5:00 am)42% (Jan 18, 1:00 pm)29.15 "Hg (Jan 11, 10:00 pm)
Average46 °F70%29.72 "Hg
* Reported Jan 6 5:00 pm — Jan 21 5:00 pm, Port-aux-Francais, Weather by CustomWeather, © 2017

Note: Actual official high and low records may vary slightly from our data, if they occured in-between our weather recording intervals... More about our weather records

Advertising

Port-aux-Francais Weather History for the Previous 24 Hours

Scroll right to see more
 ConditionsComfort  
Time TempWeatherWind HumidityBarometerVisibility
5:00 pm
Sat, Jan 21
56 °FCool.26 mph67%29.77 "HgN/A
4:00 pm58 °FRefreshingly cool.38 mph59%29.79 "HgN/A
3:00 pm59 °FRefreshingly cool.36 mph56%29.84 "HgN/A
2:00 pm60 °FRefreshingly cool.31 mph57%29.85 "HgN/A
1:00 pm58 °FCool.30 mph60%29.86 "HgN/A
12:00 pm56 °FCool.23 mph62%29.90 "HgN/A
11:00 am60 °FRefreshingly cool.18 mph56%29.91 "HgN/A
10:00 am55 °FCool.17 mph67%29.93 "HgN/A
9:00 am55 °FCool.23 mph68%29.95 "HgN/A
8:00 am54 °FCool.23 mph71%29.97 "HgN/A
7:00 am53 °FCool.20 mph75%29.98 "HgN/A
6:00 am52 °FCool.12 mph77%30.00 "HgN/A
5:00 am49 °FCool.9 mph79%30.02 "HgN/A
4:00 am50 °FCool.16 mph79%30.02 "HgN/A
3:00 am50 °FCool.10 mph75%30.04 "HgN/A
2:00 am53 °FCool.14 mph70%30.03 "HgN/A
1:00 am51 °FCool.14 mph75%30.03 "HgN/A
12:00 am52 °FCool.15 mph73%30.03 "HgN/A
11:00 pm
Fri, Jan 20
51 °FCool.9 mph80%30.03 "HgN/A
10:00 pm51 °FCool.10 mph78%30.02 "HgN/A
9:00 pm54 °FCool.21 mph70%30.00 "HgN/A
8:00 pm55 °FCool.22 mph65%29.98 "HgN/A
7:00 pm58 °FRefreshingly cool.20 mph59%29.99 "HgN/A
6:00 pm59 °FRefreshingly cool.24 mph56%29.98 "HgN/A
Weather by CustomWeather, © 2017

See weather overviewHow to use our weather pages